PAC8316 ZSPD-RKSI

Flight info

Callsign PAC8316
Flight time N/A
Altitude 29000
Route N0473F290 LAM82D LAMEN A593 SADLI Y590 ELGEP Y722 OLMEN/N0405F180 OLMEN2E
Aircraft B748/H-SADE1E2E3FGHIJ1J2J3J4J5J7M1M3P2RWXYZ/LB1D1G1

Departure

Time N/A
Airport Shanghai Pudong International Airport (ZSPD)

Arrival

Time 2026-04-30 18:45
Airport Incheon International Airport (RKSI)
Time Latitude Longitude Altitude Speed Heading
2026-04-30 17:39 31.04052 122.63202 21958 ft 528 kts 70°
2026-04-30 17:41 31.11124 122.93179 25425 ft 566 kts 70°
2026-04-30 17:42 31.11431 122.94484 25530 ft 567 kts 71°
2026-04-30 17:42 31.14579 123.07963 26802 ft 580 kts 71°
2026-04-30 17:43 31.16700 123.17091 27630 ft 585 kts 71°
2026-04-30 17:44 31.19936 123.30817 29014 ft 584 kts 71°
2026-04-30 17:44 31.23117 123.44643 29096 ft 585 kts 72°
2026-04-30 17:47 31.32547 123.85799 29088 ft 581 kts 72°
2026-04-30 17:48 31.39762 124.17931 29079 ft 585 kts 74°
2026-04-30 17:50 31.47969 124.54844 29070 ft 588 kts 74°
2026-04-30 17:52 31.51545 124.71021 29067 ft 592 kts 75°
2026-04-30 17:54 31.60746 125.13317 29043 ft 600 kts 76°
2026-04-30 17:55 31.66154 125.31788 29033 ft 601 kts 52°
2026-04-30 17:56 31.79718 125.41595 29044 ft 572 kts
2026-04-30 17:58 32.01821 125.52867 29023 ft 591 kts 17°
2026-04-30 18:00 32.31637 125.69060 29016 ft 589 kts 18°
2026-04-30 18:01 32.50231 125.79190 29018 ft 587 kts 18°
2026-04-30 18:02 32.62953 125.86172 29018 ft 585 kts 18°
2026-04-30 18:04 32.84633 125.98102 29020 ft 579 kts 19°
2026-04-30 18:06 33.14094 126.14417 29020 ft 585 kts 20°
2026-04-30 18:08 33.39837 126.28761 29026 ft 581 kts 21°
2026-04-30 18:10 33.69014 126.45140 29023 ft 578 kts 21°
2026-04-30 18:11 33.87178 126.55411 29015 ft 578 kts 21°
2026-04-30 18:13 34.04126 126.65008 29000 ft 575 kts 22°
2026-04-30 18:13 34.13474 126.70349 28990 ft 537 kts 22°
2026-04-30 18:14 34.21392 126.74871 28983 ft 543 kts 22°
2026-04-30 18:15 34.32289 126.78044 28975 ft 535 kts
2026-04-30 18:15 34.43354 126.79126 28972 ft 534 kts
2026-04-30 18:16 34.58171 126.80661 28963 ft 534 kts
2026-04-30 18:17 34.65573 126.81443 28962 ft 534 kts
2026-04-30 18:18 34.76688 126.82633 28958 ft 534 kts
2026-04-30 18:18 34.84098 126.83426 28963 ft 535 kts
2026-04-30 18:19 34.91511 126.84227 28958 ft 535 kts
2026-04-30 18:19 34.98921 126.85025 28961 ft 534 kts
2026-04-30 18:20 35.06336 126.85826 28957 ft 534 kts
2026-04-30 18:20 35.13739 126.86627 28956 ft 534 kts
2026-04-30 18:21 35.21143 126.87428 28951 ft 534 kts
2026-04-30 18:21 35.24845 126.87832 28944 ft 534 kts
2026-04-30 18:22 35.27061 126.88070 28950 ft 533 kts
2026-04-30 18:22 35.36897 126.89143 28945 ft 533 kts
2026-04-30 18:23 35.44284 126.89950 28944 ft 532 kts
2026-04-30 18:23 35.51664 126.90758 28942 ft 532 kts
2026-04-30 18:24 35.62734 126.91971 28935 ft 532 kts
2026-04-30 18:25 35.70116 126.92778 28941 ft 532 kts
2026-04-30 18:25 35.81082 126.93980 28935 ft 510 kts
2026-04-30 18:26 35.88100 126.94756 28337 ft 507 kts
2026-04-30 18:26 35.91593 126.95147 27779 ft 501 kts
2026-04-30 18:26 35.95047 126.95528 27248 ft 495 kts
2026-04-30 18:27 36.01839 126.96279 26208 ft 484 kts
2026-04-30 18:27 36.05179 126.96648 25680 ft 479 kts
2026-04-30 18:28 36.11698 126.97365 24664 ft 467 kts
2026-04-30 18:28 36.14915 126.97723 24156 ft 461 kts
2026-04-30 18:28 36.21225 126.98426 23153 ft 451 kts
2026-04-30 18:29 36.24358 126.98777 22645 ft 450 kts
2026-04-30 18:29 36.33733 126.99823 20552 ft 450 kts
2026-04-30 18:30 36.39957 127.00374 19198 ft 447 kts
2026-04-30 18:30 36.46118 127.00140 18251 ft 436 kts 358°
2026-04-30 18:31 36.49147 126.99991 18093 ft 439 kts 359°
2026-04-30 18:31 36.52187 126.99872 18030 ft 429 kts 359°
2026-04-30 18:32 36.53780 126.99811 17998 ft 420 kts 359°
2026-04-30 18:32 36.56649 126.99705 17932 ft 405 kts 359°
2026-04-30 18:32 36.62332 126.99504 17898 ft 428 kts 359°
2026-04-30 18:33 36.65354 126.99397 17890 ft 438 kts 359°
2026-04-30 18:33 36.71499 126.99115 17861 ft 443 kts 353°
2026-04-30 18:33 36.74489 126.98231 17801 ft 443 kts 342°
2026-04-30 18:34 36.77380 126.96874 17410 ft 442 kts 337°
2026-04-30 18:34 36.82864 126.93546 16147 ft 437 kts 333°
2026-04-30 18:34 36.85554 126.91807 15651 ft 430 kts 333°
2026-04-30 18:35 36.88188 126.90129 15246 ft 422 kts 333°
2026-04-30 18:35 36.90781 126.88496 14704 ft 412 kts 333°
2026-04-30 18:35 36.93326 126.86899 13951 ft 407 kts 333°
2026-04-30 18:36 36.97486 126.84290 12783 ft 397 kts 334°
2026-04-30 18:36 36.99936 126.82752 12058 ft 391 kts 334°
2026-04-30 18:36 37.04737 126.79741 10532 ft 382 kts 333°
2026-04-30 18:37 37.07107 126.78253 9751 ft 379 kts 333°
2026-04-30 18:37 37.09442 126.76781 9031 ft 373 kts 333°
2026-04-30 18:37 37.11754 126.75332 8210 ft 371 kts 333°
2026-04-30 18:37 37.14067 126.73881 7643 ft 369 kts 333°
2026-04-30 18:38 37.16315 126.72394 7449 ft 363 kts 329°
2026-04-30 18:38 37.18474 126.70676 6723 ft 370 kts 326°
2026-04-30 18:38 37.20636 126.68805 4928 ft 392 kts 326°
2026-04-30 18:38 37.22833 126.66922 4486 ft 373 kts 325°
2026-04-30 18:39 37.24826 126.65082 4288 ft 334 kts 322°
2026-04-30 18:39 37.26557 126.63421 4229 ft 290 kts 323°
2026-04-30 18:39 37.28107 126.61990 3876 ft 269 kts 323°
2026-04-30 18:39 37.29580 126.60651 3459 ft 251 kts 324°
2026-04-30 18:40 37.30909 126.59467 3272 ft 222 kts 324°
2026-04-30 18:40 37.32125 126.58406 3034 ft 197 kts 324°
2026-04-30 18:40 37.33157 126.57461 2819 ft 177 kts 323°
2026-04-30 18:40 37.34135 126.56582 2824 ft 170 kts 326°
2026-04-30 18:41 37.35122 126.55774 2844 ft 175 kts 326°
2026-04-30 18:41 37.36161 126.54902 2297 ft 180 kts 325°
2026-04-30 18:42 37.36799 126.54347 2134 ft 175 kts 325°
2026-04-30 18:42 37.38750 126.52619 1690 ft 164 kts 324°
2026-04-30 18:42 37.39660 126.51808 1484 ft 158 kts 323°
2026-04-30 18:45 37.47264 126.45021 37 ft 36 kts 324°
2026-04-30 18:45 37.47561 126.44760 37 ft 56 kts 328°
2026-04-30 18:45 37.47837 126.44673 37 ft 27 kts 355°
2026-04-30 18:46 37.47912 126.44749 36 ft 12 kts 145°
2026-04-30 18:46 37.47829 126.44824 36 ft 18 kts 144°
2026-04-30 18:46 37.47684 126.44954 37 ft 31 kts 145°
2026-04-30 18:46 37.47504 126.45115 36 ft 31 kts 143°
2026-04-30 18:47 37.47324 126.45273 36 ft 32 kts 146°
2026-04-30 18:47 37.47151 126.45430 37 ft 23 kts 145°
2026-04-30 18:47 37.47096 126.45527 36 ft 12 kts 58°
2026-04-30 18:47 37.47140 126.45610 36 ft 11 kts 66°
2026-04-30 18:48 37.47120 126.45683 36 ft 9 kts 129°
2026-04-30 18:48 37.47096 126.45707 36 ft 3 kts 147°
2026-04-30 18:48 37.47085 126.45717 37 ft 0 kts 145°